Location: College Rock
(37.2713°N, 119.1740°W)
Time: 04:34:09
(UTC+00:00)

Aureole 3 - Pass Details

Date: 29 October 2020
Orbit: 382 x 1232 km, 82.5° (Epoch: 23 November)

Event Time Altitude Azimuth Distance (km) Brightness Sun altitude
Rises 12:49:39 0° 355° (N) 2,853 6.9 -18.3°
Reaches altitude 10° 12:51:38 10° 357° (N) 2,056 6.2 -17.9°
Maximum altitude 12:56:15 77° 83° (E) 792 4.1 -17.0°
Drops below altitude 10° 13:02:08 10° 170° (S) 2,609 6.9 -15.8°
Sets 13:04:54 0° 171° (S) 3,684 7.7 -15.2°
